DLH576L LFMQ-LFBO

Flight info

Callsign DLH576L
Flight time 0h 57m
Altitude 17000
Route MTG DCT SALIN/N0296F220 DCT FJR DCT AFRIC
Aircraft AT46/M-SDFGIRY/S

Departure

Time 2026-04-21 07:22
Airport Le Castellet Airport (LFMQ)

Arrival

Time 2026-04-21 08:20
Airport Toulouse-Blagnac Airport (LFBO)
Time Latitude Longitude Altitude Speed Heading
2026-04-21 07:22 43.32743 5.47772 11854 ft 180 kts 295°
2026-04-21 07:22 43.33260 5.46193 12393 ft 178 kts 295°
2026-04-21 07:23 43.33765 5.44655 12934 ft 176 kts 295°
2026-04-21 07:23 43.34269 5.43114 13486 ft 173 kts 295°
2026-04-21 07:23 43.34757 5.41627 14007 ft 169 kts 295°
2026-04-21 07:23 43.35241 5.40150 14467 ft 171 kts 295°
2026-04-21 07:24 43.35732 5.38658 15081 ft 172 kts 295°
2026-04-21 07:24 43.36225 5.37154 15689 ft 173 kts 295°
2026-04-21 07:24 43.36718 5.35642 16298 ft 174 kts 295°
2026-04-21 07:24 43.37214 5.34115 16881 ft 176 kts 295°
2026-04-21 07:25 43.37760 5.32427 16980 ft 199 kts 292°
2026-04-21 07:25 43.37977 5.30527 16982 ft 214 kts 275°
2026-04-21 07:25 43.37995 5.28401 16958 ft 229 kts 274°
2026-04-21 07:25 43.38009 5.26167 16950 ft 239 kts 274°
2026-04-21 07:26 43.38048 5.23851 16946 ft 246 kts 275°
2026-04-21 07:26 43.38126 5.21484 16943 ft 251 kts 275°
2026-04-21 07:26 43.38213 5.19067 16941 ft 254 kts 275°
2026-04-21 07:26 43.38303 5.16628 16936 ft 257 kts 275°
2026-04-21 07:27 43.38394 5.14138 16931 ft 258 kts 275°
2026-04-21 07:27 43.38487 5.11671 16936 ft 259 kts 275°
2026-04-21 07:27 43.38574 5.09193 16934 ft 260 kts 275°
2026-04-21 07:27 43.38263 5.06748 16938 ft 264 kts 253°
2026-04-21 07:28 43.37523 5.04409 16936 ft 266 kts 250°
2026-04-21 07:28 43.36755 5.02115 16934 ft 267 kts 250°
2026-04-21 07:28 43.35966 4.99795 16933 ft 268 kts 250°
2026-04-21 07:28 43.35170 4.97476 16934 ft 268 kts 249°
2026-04-21 07:29 43.34450 4.95133 16933 ft 265 kts 256°
2026-04-21 07:29 43.33898 4.92715 16934 ft 266 kts 257°
2026-04-21 07:29 43.33321 4.90298 16935 ft 267 kts 255°
2026-04-21 07:29 43.32666 4.87912 16937 ft 268 kts 252°
2026-04-21 07:30 43.31966 4.85545 16937 ft 268 kts 252°
2026-04-21 07:30 43.31265 4.83172 16936 ft 268 kts 252°
2026-04-21 07:30 43.30573 4.80801 16937 ft 268 kts 252°
2026-04-21 07:30 43.29885 4.78429 16935 ft 268 kts 252°
2026-04-21 07:31 43.29191 4.76053 16940 ft 268 kts 252°
2026-04-21 07:31 43.28715 4.73643 16939 ft 259 kts 272°
2026-04-21 07:31 43.29051 4.71238 16942 ft 258 kts 288°
2026-04-21 07:31 43.29754 4.68976 16942 ft 259 kts 297°
2026-04-21 07:32 43.30636 4.66813 16941 ft 260 kts 300°
2026-04-21 07:32 43.31556 4.64670 16946 ft 260 kts 300°
2026-04-21 07:32 43.32474 4.62487 16946 ft 261 kts 298°
2026-04-21 07:32 43.33345 4.60307 16946 ft 261 kts 298°
2026-04-21 07:33 43.34207 4.58115 16947 ft 261 kts 297°
2026-04-21 07:33 43.35063 4.55919 16947 ft 261 kts 297°
2026-04-21 07:33 43.35909 4.53716 16949 ft 261 kts 297°
2026-04-21 07:33 43.36758 4.51511 16947 ft 261 kts 297°
2026-04-21 07:34 43.37608 4.49311 16950 ft 261 kts 298°
2026-04-21 07:34 43.38469 4.47114 16952 ft 261 kts 298°
2026-04-21 07:34 43.39331 4.44917 16952 ft 261 kts 298°
2026-04-21 07:34 43.40194 4.42722 16956 ft 261 kts 298°
2026-04-21 07:35 43.41054 4.40523 16957 ft 261 kts 298°
2026-04-21 07:35 43.41917 4.38322 16956 ft 261 kts 297°
2026-04-21 07:35 43.42789 4.36093 16958 ft 261 kts 297°
2026-04-21 07:35 43.43652 4.33892 16960 ft 261 kts 297°
2026-04-21 07:36 43.44513 4.31688 16963 ft 261 kts 297°
2026-04-21 07:36 43.45374 4.29485 16961 ft 262 kts 297°
2026-04-21 07:36 43.46232 4.27284 16968 ft 262 kts 297°
2026-04-21 07:36 43.46817 4.25788 16963 ft 262 kts 297°
2026-04-21 07:37 43.47997 4.22756 16969 ft 262 kts 297°
2026-04-21 07:37 43.48615 4.21174 16970 ft 262 kts 297°
2026-04-21 07:37 43.49479 4.18959 16968 ft 263 kts 297°
2026-04-21 07:37 43.50340 4.16743 16965 ft 263 kts 297°
2026-04-21 07:38 43.51201 4.14524 16966 ft 263 kts 297°
2026-04-21 07:38 43.52063 4.12303 16965 ft 263 kts 297°
2026-04-21 07:38 43.52934 4.10054 16964 ft 262 kts 297°
2026-04-21 07:38 43.53794 4.07840 16965 ft 262 kts 297°
2026-04-21 07:39 43.54652 4.05628 16966 ft 262 kts 297°
2026-04-21 07:39 43.55509 4.03413 16963 ft 262 kts 297°
2026-04-21 07:39 43.56378 4.01164 16968 ft 262 kts 297°
2026-04-21 07:39 43.57233 3.98948 16966 ft 262 kts 297°
2026-04-21 07:40 43.57904 3.96645 16967 ft 261 kts 279°
2026-04-21 07:40 43.57910 3.94212 16966 ft 261 kts 269°
2026-04-21 07:40 43.57774 3.91708 16967 ft 262 kts 268°
2026-04-21 07:40 43.57636 3.89199 16966 ft 263 kts 269°
2026-04-21 07:41 43.57541 3.86683 16966 ft 263 kts 270°
2026-04-21 07:41 43.57484 3.84130 16965 ft 263 kts 270°
2026-04-21 07:41 43.57423 3.81605 16973 ft 264 kts 270°
2026-04-21 07:41 43.57362 3.79073 16964 ft 264 kts 270°
2026-04-21 07:42 43.57300 3.76513 16964 ft 264 kts 270°
2026-04-21 07:42 43.57236 3.73980 16966 ft 264 kts 270°
2026-04-21 07:42 43.57171 3.71450 16966 ft 264 kts 270°
2026-04-21 07:42 43.57108 3.68919 16965 ft 264 kts 270°
2026-04-21 07:43 43.57041 3.66342 16960 ft 264 kts 270°
2026-04-21 07:43 43.56979 3.63872 16968 ft 264 kts 270°
2026-04-21 07:43 43.56913 3.61339 16971 ft 264 kts 270°
2026-04-21 07:43 43.56847 3.58809 16975 ft 265 kts 270°
2026-04-21 07:44 43.56778 3.56266 16970 ft 265 kts 270°
2026-04-21 07:44 43.56711 3.53728 16967 ft 266 kts 270°
2026-04-21 07:44 43.56642 3.51181 16967 ft 266 kts 270°
2026-04-21 07:44 43.56572 3.48637 16968 ft 265 kts 270°
2026-04-21 07:45 43.56504 3.46093 16967 ft 266 kts 270°
2026-04-21 07:45 43.56432 3.43517 16964 ft 265 kts 270°
2026-04-21 07:45 43.56361 3.40970 16968 ft 265 kts 269°
2026-04-21 07:45 43.56289 3.38432 16968 ft 265 kts 270°
2026-04-21 07:46 43.56218 3.35889 16964 ft 266 kts 269°
2026-04-21 07:46 43.56145 3.33345 16967 ft 266 kts 269°
2026-04-21 07:46 43.56074 3.30817 16964 ft 266 kts 270°
2026-04-21 07:46 43.56002 3.28265 16962 ft 266 kts 269°
2026-04-21 07:47 43.55925 3.25723 16964 ft 266 kts 269°
2026-04-21 07:47 43.55850 3.23180 16977 ft 266 kts 269°
2026-04-21 07:47 43.55774 3.20636 16973 ft 266 kts 269°
2026-04-21 07:47 43.55698 3.18086 16975 ft 266 kts 269°
2026-04-21 07:48 43.55621 3.15536 16968 ft 267 kts 269°
2026-04-21 07:48 43.55543 3.12949 16965 ft 266 kts 269°
2026-04-21 07:48 43.55481 3.10793 16957 ft 266 kts 269°
2026-04-21 07:49 43.55456 3.09983 16961 ft 265 kts 269°
2026-04-21 07:49 43.55376 3.07443 16968 ft 266 kts 269°
2026-04-21 07:50 43.55298 3.04899 16974 ft 266 kts 269°
2026-04-21 07:50 43.55218 3.02374 16971 ft 266 kts 269°
2026-04-21 07:50 43.55137 2.99824 16972 ft 266 kts 269°
2026-04-21 07:50 43.55056 2.97275 16978 ft 267 kts 269°
2026-04-21 07:51 43.54977 2.94719 16963 ft 267 kts 269°
2026-04-21 07:51 43.54892 2.92131 16966 ft 267 kts 269°
2026-04-21 07:51 43.54809 2.89576 16969 ft 267 kts 269°
2026-04-21 07:51 43.54728 2.87019 16961 ft 267 kts 269°
2026-04-21 07:52 43.54643 2.84471 16967 ft 266 kts 269°
2026-04-21 07:52 43.54557 2.81923 16954 ft 266 kts 269°
2026-04-21 07:52 43.54474 2.79353 16963 ft 265 kts 269°
2026-04-21 07:52 43.54388 2.76818 16976 ft 264 kts 269°
2026-04-21 07:53 43.54299 2.74228 16982 ft 265 kts 269°
2026-04-21 07:53 43.54215 2.71662 16972 ft 266 kts 269°
2026-04-21 07:53 43.54157 2.69970 16969 ft 266 kts 269°
2026-04-21 07:53 43.54068 2.67419 16974 ft 266 kts 269°
2026-04-21 07:54 43.53978 2.64830 16970 ft 267 kts 269°
2026-04-21 07:54 43.53888 2.62262 16967 ft 267 kts 269°
2026-04-21 07:54 43.53795 2.59663 16923 ft 268 kts 269°
2026-04-21 07:54 43.53692 2.56976 16401 ft 284 kts 268°
2026-04-21 07:55 43.53554 2.54153 16215 ft 286 kts 267°
2026-04-21 07:55 43.53380 2.51460 15927 ft 290 kts 266°
2026-04-21 07:55 43.53198 2.48710 15556 ft 288 kts 266°
2026-04-21 07:55 43.53019 2.46057 15198 ft 285 kts 266°
2026-04-21 07:56 43.52834 2.43353 14830 ft 283 kts 266°
2026-04-21 07:56 43.52659 2.40658 14478 ft 283 kts 267°
2026-04-21 07:56 43.52495 2.38165 14147 ft 282 kts 266°
2026-04-21 07:56 43.52314 2.35494 13789 ft 282 kts 266°
2026-04-21 07:57 43.52136 2.32819 13406 ft 282 kts 266°
2026-04-21 07:57 43.51949 2.30084 13005 ft 281 kts 266°
2026-04-21 07:57 43.51769 2.27408 12615 ft 279 kts 266°
2026-04-21 07:57 43.51585 2.24712 12229 ft 278 kts 266°
2026-04-21 07:58 43.51405 2.22076 11847 ft 277 kts 266°
2026-04-21 07:58 43.51225 2.19439 11475 ft 276 kts 266°
2026-04-21 07:58 43.51042 2.16771 11101 ft 276 kts 266°
2026-04-21 07:58 43.50862 2.14143 10730 ft 276 kts 266°
2026-04-21 07:59 43.50680 2.11519 10364 ft 275 kts 266°
2026-04-21 07:59 43.50496 2.08899 10006 ft 275 kts 266°
2026-04-21 07:59 43.50315 2.06286 9630 ft 273 kts 266°
2026-04-21 07:59 43.50131 2.03650 9224 ft 269 kts 266°
2026-04-21 08:00 43.49949 2.01074 8844 ft 268 kts 266°
2026-04-21 08:00 43.49772 1.98536 8549 ft 264 kts 265°
2026-04-21 08:00 43.49593 1.96026 8293 ft 262 kts 265°
2026-04-21 08:00 43.49420 1.93557 8107 ft 258 kts 265°
2026-04-21 08:01 43.49435 1.91155 8036 ft 248 kts 285°
2026-04-21 08:01 43.50177 1.89037 8003 ft 245 kts 302°
2026-04-21 08:01 43.51204 1.87115 7979 ft 244 kts 308°
2026-04-21 08:02 43.53399 1.83503 7953 ft 241 kts 309°
2026-04-21 08:02 43.54461 1.81726 7948 ft 240 kts 308°
2026-04-21 08:02 43.55496 1.79928 7942 ft 238 kts 307°
2026-04-21 08:02 43.56521 1.78132 7960 ft 238 kts 307°
2026-04-21 08:03 43.56716 1.77789 7951 ft 238 kts 307°
2026-04-21 08:03 43.57795 1.75896 7952 ft 239 kts 307°
2026-04-21 08:03 43.58458 1.74733 7950 ft 239 kts 307°
2026-04-21 08:03 43.59527 1.72850 7939 ft 239 kts 308°
2026-04-21 08:04 43.60555 1.71047 7937 ft 239 kts 307°
2026-04-21 08:04 43.61580 1.69243 7946 ft 239 kts 308°
2026-04-21 08:04 43.62622 1.67418 7938 ft 238 kts 308°
2026-04-21 08:04 43.63668 1.65565 7952 ft 238 kts 307°
2026-04-21 08:05 43.64685 1.63749 7949 ft 240 kts 308°
2026-04-21 08:05 43.65715 1.61928 7935 ft 241 kts 307°
2026-04-21 08:05 43.66740 1.60104 7929 ft 240 kts 307°
2026-04-21 08:05 43.67762 1.58282 7937 ft 240 kts 307°
2026-04-21 08:06 43.68792 1.56471 7943 ft 240 kts 308°
2026-04-21 08:06 43.69823 1.54648 7948 ft 240 kts 307°
2026-04-21 08:06 43.70853 1.52829 7947 ft 241 kts 307°
2026-04-21 08:06 43.71887 1.51002 7944 ft 242 kts 307°
2026-04-21 08:07 43.72925 1.49170 7943 ft 242 kts 308°
2026-04-21 08:07 43.73962 1.47335 7933 ft 242 kts 307°
2026-04-21 08:07 43.74998 1.45502 7927 ft 241 kts 307°
2026-04-21 08:07 43.76029 1.43674 7941 ft 240 kts 307°
2026-04-21 08:08 43.77056 1.41854 7946 ft 241 kts 307°
2026-04-21 08:08 43.78101 1.40001 7931 ft 241 kts 307°
2026-04-21 08:08 43.79123 1.38172 7948 ft 240 kts 307°
2026-04-21 08:08 43.80151 1.36339 7935 ft 241 kts 307°
2026-04-21 08:09 43.81179 1.34515 7919 ft 241 kts 307°
2026-04-21 08:09 43.82220 1.32662 7757 ft 246 kts 307°
2026-04-21 08:09 43.83283 1.30770 7617 ft 251 kts 307°
2026-04-21 08:09 43.84360 1.28850 7440 ft 254 kts 307°
2026-04-21 08:10 43.85333 1.26821 7156 ft 239 kts 291°
2026-04-21 08:10 43.85433 1.24715 6739 ft 209 kts 255°
2026-04-21 08:10 43.84646 1.23190 6369 ft 191 kts 217°
2026-04-21 08:10 43.83545 1.22261 6032 ft 179 kts 212°
2026-04-21 08:11 43.82492 1.21414 5700 ft 172 kts 213°
2026-04-21 08:11 43.81461 1.20569 5361 ft 172 kts 211°
2026-04-21 08:11 43.80321 1.20164 5023 ft 173 kts 172°
2026-04-21 08:11 43.79163 1.20594 4894 ft 175 kts 164°
2026-04-21 08:12 43.77982 1.21162 4857 ft 183 kts 158°
2026-04-21 08:12 43.76814 1.21908 4826 ft 186 kts 152°
2026-04-21 08:12 43.76791 1.21925 4830 ft 186 kts 152°
2026-04-21 08:15 43.75933 1.22610 4826 ft 184 kts 149°
2026-04-21 08:15 43.74882 1.23577 4702 ft 178 kts 143°
2026-04-21 08:16 43.73931 1.24620 4226 ft 173 kts 141°
2026-04-21 08:16 43.73717 1.24857 4115 ft 173 kts 140°
2026-04-21 08:16 43.72856 1.25866 3587 ft 172 kts 140°
2026-04-21 08:17 43.71901 1.26846 3228 ft 165 kts 144°
2026-04-21 08:17 43.70932 1.27711 2787 ft 166 kts 145°
2026-04-21 08:17 43.69980 1.28638 2182 ft 168 kts 142°
2026-04-21 08:17 43.69102 1.29696 1739 ft 153 kts 137°
2026-04-21 08:18 43.68328 1.30585 1500 ft 137 kts 142°
2026-04-21 08:18 43.67594 1.31335 1280 ft 129 kts 143°
2026-04-21 08:18 43.66932 1.31977 1122 ft 110 kts 143°
2026-04-21 08:18 43.66342 1.32573 981 ft 100 kts 142°
2026-04-21 08:19 43.65783 1.33161 853 ft 98 kts 141°
2026-04-21 08:19 43.65254 1.33718 734 ft 94 kts 141°
2026-04-21 08:19 43.64736 1.34263 616 ft 94 kts 141°
2026-04-21 08:19 43.64221 1.34795 515 ft 92 kts 142°
2026-04-21 08:20 43.63804 1.35233 492 ft 31 kts 143°
2026-04-21 08:20 43.63749 1.35287 492 ft 5 kts 144°
2026-04-21 08:20 43.63722 1.35316 495 ft 5 kts 143°
2026-04-21 08:20 43.63674 1.35365 492 ft 12 kts 142°
2026-04-21 08:21 43.63598 1.35452 490 ft 14 kts 124°
2026-04-21 08:21 43.63606 1.35549 493 ft 9 kts 54°
2026-04-21 08:21 43.63645 1.35622 495 ft 10 kts 53°
2026-04-21 08:21 43.63687 1.35700 495 ft 11 kts 53°
2026-04-21 08:22 43.63730 1.35776 496 ft 9 kts 53°
2026-04-21 08:22 43.63767 1.35842 492 ft 9 kts 52°
2026-04-21 08:22 43.63804 1.35914 495 ft 9 kts 54°
2026-04-21 08:22 43.63806 1.35999 492 ft 11 kts 131°
2026-04-21 08:23 43.63737 1.36075 495 ft 16 kts 141°
2026-04-21 08:23 43.63627 1.36192 494 ft 23 kts 143°
2026-04-21 08:23 43.63483 1.36341 496 ft 28 kts 144°
2026-04-21 08:23 43.63315 1.36516 491 ft 32 kts 143°
2026-04-21 08:24 43.63130 1.36706 494 ft 32 kts 143°
2026-04-21 08:24 43.62984 1.36857 498 ft 14 kts 143°
2026-04-21 08:24 43.62951 1.36935 498 ft 8 kts 79°
2026-04-21 08:24 43.62966 1.36981 492 ft 8 kts 56°
2026-04-21 08:25 43.63002 1.37049 491 ft 9 kts 54°
2026-04-21 08:25 43.63012 1.37125 498 ft 7 kts 121°
2026-04-21 08:25 43.62967 1.37182 495 ft 12 kts 143°
2026-04-21 08:25 43.62887 1.37268 499 ft 17 kts 138°
2026-04-21 08:26 43.62787 1.37376 499 ft 20 kts 141°
2026-04-21 08:26 43.62776 1.37441 499 ft 3 kts
2026-04-21 08:26 43.62809 1.37340 499 ft 17 kts 302°
2026-04-21 08:26 43.62861 1.37319 499 ft 5 kts 37°
2026-04-21 08:27 43.62894 1.37367 499 ft 8 kts 48°
2026-04-21 08:27 43.62910 1.37392 499 ft 1 kts 47°